Weather observations for the past three days for
Syracuse, Syracuse Hancock International Airport
Imperial (Metric)
Date Time (edt) Wind (mph) Vis. (mi.) Weather Sky Cond. Temperature (ºF) Relative Humidity Wind Chill (°F) Heat Index (°F) Pressure Precipitation (in)
Air Dwpt 6 hour altimeter (in) sea level (mb) 1 hr 3 hr 6 hr
Max. Min.
15 03:54 Calm 10.00 Mostly Cloudy FEW050 FEW065 BKN250 75.9 66 72% 77 29.86 1010.6
15 02:54 SW 7 10.00 Mostly Cloudy FEW050 BKN250 79 64.9 62% 81 29.86 1010.3
15 01:54 SW 6 10.00 Mostly Cloudy SCT048 SCT085 BKN250 79 64 87.1 77 60% 81 29.86 1010.6
15 00:54 S 7 10.00 Mostly Cloudy FEW080 SCT090 BKN250 79 64 60% 81 29.87 1010.9
14 23:54 S 7 10.00 Mostly Cloudy SCT070 BKN085 BKN120 81 64 57% 83 29.89 1011.4
14 22:54 S 5 10.00 Mostly Cloudy FEW065 BKN080 BKN110 81 64 57% 83 29.9 1011.7
14 21:54 S 3 10.00 Mostly Cloudy SCT075 BKN090 81 64.9 58% 83 29.91 1012.1
14 20:54 W 8 10.00 Mostly Cloudy SCT095 BKN120 81 64.9 58% 83 29.92 1012.7
14 19:54 Calm 10.00 Light Rain FEW060 SCT120 BKN150 BKN230 84 64.9 91.9 84 53% 86 29.91 1012.2
14 18:54 SW 5 10.00 Mostly Cloudy FEW060 FEW100 BKN170 BKN240 88 61 40% 88 29.92 1012.4
14 17:54 SW 5 10.00 Mostly Cloudy FEW070 SCT120 BKN150 BKN250 90 60.1 37% 90 29.92 1012.5
14 16:54 W 6 10.00 Mostly Cloudy FEW070 SCT170 BKN250 90 57 33% 89 29.93 1012.8
14 15:54 SW 6 10.00 Partly Cloudy FEW070 FEW130 SCT180 SCT250 90 57.9 34% 89 29.96 1013.7
14 14:54 Vrbl 7 10.00 Mostly Cloudy FEW060 FEW130 SCT180 BKN250 91.9 60.1 34% 92 29.97 1014.3
14 13:54 SW 7 10.00 Partly Cloudy FEW050 FEW180 SCT250 88 57.9 89.1 69.1 36% 87 30 1015.2
14 12:54 W 3 10.00 Partly Cloudy FEW050 FEW180 SCT250 88 57.9 36% 87 30.02 1016.0
14 11:54 Calm 10.00 A Few Clouds FEW045 FEW180 FEW260 86 59 40% 85 30.04 1016.6
14 10:54 Calm 10.00 A Few Clouds FEW180 FEW260 84 60.1 44% 84 30.06 1017.3
14 09:54 E 3 10.00 Partly Cloudy FEW180 SCT260 79 61 54% 80 30.07 1017.5
14 08:54 Calm 10.00 A Few Clouds FEW260 73.9 60.1 62% 30.09 1018.2
14 07:54 SE 3 10.00 A Few Clouds FEW260 69.1 59 69.1 63 70% 30.09 1018.2
14 06:54 E 3 10.00 A Few Clouds FEW060 FEW260 64.9 59 81% 30.09 1018.3
14 05:54 E 5 10.00 A Few Clouds FEW060 FEW260 63 57.9 84% 30.09 1018.2
14 04:54 SE 6 10.00 A Few Clouds FEW250 64 59 84% 30.09 1018.3
14 03:54 SE 5 10.00 A Few Clouds FEW250 64.9 60.1 84% 30.09 1018.4
14 02:54 Calm 10.00 A Few Clouds FEW220 66 60.1 81% 30.1 1018.5
14 01:54 Calm 10.00 A Few Clouds FEW220 68 62.1 80.1 66.9 81% 30.1 1018.6
14 00:54 E 3 10.00 A Few Clouds FEW250 68 62.1 81% 30.1 1018.6
13 23:54 Calm 10.00 A Few Clouds FEW250 69.1 61 76% 30.11 1018.9
13 22:54 Calm 10.00 A Few Clouds FEW250 70 61 73% 30.11 1019.0
13 21:54 Calm 10.00 A Few Clouds FEW250 71.1 60.1 68% 30.12 1019.2
13 20:54 Calm 10.00 A Few Clouds FEW250 75 60.1 60% 77 30.11 1019.0
13 19:54 NW 8 10.00 A Few Clouds FEW300 80.1 57 88 80.1 45% 80 30.12 1019.2
13 18:54 W 10 10.00 A Few Clouds FEW050 FEW300 82.9 62.1 49% 84 30.12 1019.2
13 17:54 NW 10 10.00 A Few Clouds FEW050 FEW300 84 64 51% 85 30.11 1018.9
13 16:54 NW 9 G 17 10.00 A Few Clouds FEW042 FEW050 FEW300 84.9 64.9 51% 87 30.12 1019.3
13 15:54 NW 12 10.00 Partly Cloudy FEW042 SCT050 SCT300 86 66 51% 88 30.12 1019.3
13 14:54 NW 12 10.00 Partly Cloudy SCT037 SCT047 SCT300 86 66 51% 88 30.12 1019.5
13 13:54 NW 12 10.00 Mostly Cloudy SCT037 BKN047 BKN250 86 66 88 77 51% 88 30.13 1019.8
13 12:54 NW 6 G 16 10.00 Partly Cloudy FEW029 SCT037 SCT250 84.9 66.9 55% 88 30.15 1020.3
13 11:54 W 5 10.00 Partly Cloudy FEW027 SCT040 SCT250 84 68 59% 87 30.16 1020.6
13 10:54 W 7 10.00 Partly Cloudy SCT025 SCT250 81 66.9 62% 83 30.16 1020.7
13 09:54 SW 5 10.00 Partly Cloudy SCT019 SCT250 80.1 68 67% 83 30.16 1020.5
13 08:54 W 6 10.00 Partly Cloudy SCT017 SCT250 78.1 68 71% 80 30.17 1020.8
13 07:54 W 8 10.00 Partly Cloudy FEW016 FEW060 SCT180 77 68 77 71.1 74% 79 30.17 1021.0
13 06:54 Calm 10.00 Partly Cloudy FEW065 SCT110 SCT250 73 68 84% 30.16 1020.6
13 05:54 E 3 10.00 Mostly Cloudy FEW110 SCT120 BKN220 72 66.9 84% 30.15 1020.2
13 04:54 E 3 10.00 Mostly Cloudy SCT095 BKN120 73 66.9 81% 30.14 1019.9
13 03:54 E 3 10.00 Mostly Cloudy BKN095 BKN120 72 66.9 84% 30.13 1019.6
13 02:54 Calm 10.00 Overcast OVC095 73 68 84% 30.13 1019.6
13 01:54 Calm 10.00 Overcast BKN090 OVC110 75 66.9 82 72 76% 76 30.14 1019.8
13 00:54 E 3 10.00 Mostly Cloudy SCT085 BKN100 73 66.9 81% 30.14 1019.9
12 23:54 SE 6 10.00 Partly Cloudy FEW060 FEW080 SCT100 73 66.9 81% 30.14 1019.9
12 22:54 Calm 10.00 Partly Cloudy FEW060 SCT080 SCT095 73 66 79% 30.14 1020.1
12 21:54 Calm 10.00 Partly Cloudy FEW040 SCT090 SCT200 75 66.9 76% 76 30.14 1020.1
12 20:54 Calm 10.00 Partly Cloudy FEW045 FEW200 SCT250 75.9 66.9 74% 77 30.13 1019.8
12 18:54 NE 3 10.00 Partly Cloudy FEW047 FEW060TCU SCT080 SCT200 84 66 55% 86 30.12 1019.1
12 17:54 NE 3 10.00 Partly Cloudy FEW050 SCT075 SCT200 84 66 55% 86 30.11 1019.0
12 16:54 N 7 10.00 Mostly Cloudy SCT045 BKN060 BKN080 BKN200 82.9 66.9 59% 86 30.12 1019.3
12 15:54 NE 5 10.00 Mostly Cloudy BKN044 BKN080 82.9 64.9 55% 85 30.13 1019.7
12 14:54 Vrbl 3 10.00 Mostly Cloudy SCT045 BKN055 BKN080 84.9 64 50% 86 30.15 1020.3
12 13:54 W 6 10.00 Mostly Cloudy SCT034 SCT046 BKN080 84 64 84.9 73 51% 85 30.15 1020.4
12 12:54 SW 5 10.00 Mostly Cloudy FEW030 BKN055 BKN075 82.9 64.9 55% 85 30.17 1020.9
12 11:54 S 7 10.00 Overcast FEW033 BKN045 OVC075 80.1 64.9 60% 82 30.17 1021.1
12 10:54 Calm 10.00 Mostly Cloudy FEW027 BKN040 BKN055 81 66 61% 83 30.17 1021.0
12 09:54 SW 5 10.00 Mostly Cloudy FEW025 SCT042 BKN050 BKN140 78.1 66 67% 80 30.16 1020.8
12 08:54 S 5 10.00 Mostly Cloudy FEW020 BKN046 BKN200 75 66 74% 76 30.16 1020.9
12 07:54 S 3 10.00 Mostly Cloudy FEW020 BKN044 BKN200 73 66 73 70 79% 30.16 1020.7
12 06:54 S 5 10.00 Mostly Cloudy BKN044 BKN200 72 66 82% 30.14 1020.1
12 05:54 SW 3 10.00 Mostly Cloudy BKN041 BKN200 71.1 66 84% 30.13 1019.6
12 04:54 Calm 10.00 Overcast BKN032 OVC055 71.1 66 84% 30.11 1019.1
Date Time (edt) Wind (mph) Vis. (mi.) Weather Sky Cond. Air Dwpt Max. Min. Relative Humidity Wind Chill (°F) Heat Index (°F) altimeter (in) sea level (mb) 1 hr 3 hr 6 hr
6 hour
Temperature (ºF) Pressure Precipitation (in)